Location: Edoum�
(0.9447°N, 10.6482°E)
Time: 13:33:01
(UTC+00:00)

STARLINK-60 - Pass Details

Date: 07 June 2020
Orbit: 383 x 390 km, 53.0° (Epoch: 07 July)

Event Time Altitude Azimuth Distance (km) Brightness Sun altitude
Rises 03:53:17 0° 338° (NNW) 2,279 6.8 -18.7°
Reaches altitude 10° 03:55:26 10° 346° (NNW) 1,428 5.9 -18.2°
Maximum altitude 03:58:25 37° 56° (NE) 632 4.5 -17.5°
Drops below altitude 10° 04:01:27 10° 125° (SE) 1,442 6.2 -16.8°
Sets 04:03:37 0° 134° (SE) 2,303 7.1 -16.3°
